User: anonymous   Login
Location: Unspecified
(0.0000°N, 0.0000°E)
Time: 04:22:32
(UTC+00:00)
Language:

Envisat - Orbit

View from above orbital plane
View from above orbital plane
View from above satellite
View from above satellite

Ground track
Ground track

The orbit data is extracted from the following two-line orbital elements,

1 27386U 02009A   19109.62679023  .00000007  00000-0  15676-4 0  9998
2 27386  98.1545 133.7089 0001417  90.7979  17.2341 14.37946290897563
Epoch (UTC): 19 April 2019 15:02:34
Eccentricity: 0.0001417
inclination: 98.1545°
perigee height: 764 km
apogee height: 766 km
right ascension of ascending node: 133.7089°
argument of perigee: 90.7979°
revolutions per day: 14.37946290
mean anomaly at epoch: 17.2341°
orbit number at epoch: 89756

The dashed part of the orbit path shows where the satellite is in the earth's shadow,  

DLR